Location: Altenhof
(50.2418°N, 10.8789°E)
Time: 04:11:55
(UTC+00:00)

PAYLOAD B - Pass Details

Date: 18 February 2020
Orbit: 848 x 872 km, 99.1° (Epoch: 09 April)

Event Time Altitude Azimuth Distance (km) Brightness Sun altitude
Rises 05:17:08 0° 14° (NNE) 3,469 7.5 -11.2°
Reaches altitude 10° 05:19:32 10° 13° (NNE) 2,525 6.8 -10.8°
Maximum altitude 05:25:08 74° 290° (WNW) 903 4.2 -9.9°
Drops below altitude 10° 05:30:39 10° 206° (SSW) 2,493 6.5 -9.0°
Sets 05:33:01 0° 204° (SSW) 3,422 7.2 -8.7°
